Voltar ao catálogo

NOAA 16 DEB

AtivoSSO
NORAD 41055·DEBRIS·🇺🇸 United States

Lançado Sep 21, 2000 de Vandenberg Space Force Base

Loading…

Próximas Passagens (próximas 24 horas)

TLE

AtualizadoSource: Space-Track

Época: Sep 14, 2026, 06:10 UTC

1 41055U 00055N   26257.25717024  .00002709  00000-0  93251-3 0  9996
2 41055  98.7971  14.1442 0012848 298.3931  61.5959 14.36779552560377

Acompanhe NOAA 16 DEB em tempo real com AllMySat

Download on the App Store